Погода в Кургане

Хотите узнать прогноз погоды в Кургане? Тогда Вам сюда: Погода в Кургане

Поиск расширенной информации на нашем сайте:

Полезная информация:

Новости сайта



02.01.2020
Опубликован Долгосрочный прогноз погоды по городам России и ближнего зарубежья на январь 2020 года.
Карты: Прогноз на январь и февраль 2020 года, Сравнение прогнозируемой аномалии приземной температуры воздуха на январь 2020 года по разным моделям.




Погода в Кургане - сегодня

Время (UTC), дата Ветер
(°,м/с) 
Видим.   Явления Облачность Т
(°С)
Тd
(°С)
f(%) Тe
(°С)
Pmin
(гПа)
dP
(гПа)
Po
(мм)
O2
(г/м3)
Тmin Tmax R s Состояние
почвы
09 04.06.20 360 (С) 4{13}  20000 м    3/3 1000 м 
[Cu hum]
+14.9 -1 34 +15  1022.3  0.6  760  291           
12 04.06.20 030 (СВ) 20000 м    ясно 
+15.9 -0.3 33 +16  1022.7  0.4  760  290           
15 04.06.20 030 (СВ) 20000 м    ясно 
+14.3 +0.2 38 +15  1023.3  0.5  761  291    +16       
18 04.06.20 тихо ()   10 км    ясно 
+6.2 +1.8 73 +6  1024.6  1.1  762  300           
21 04.06.20 тихо ()   10 км    ясно 
+4.6 +2.8 88 +5  1025.4  0.8  762  302           
00 05.06.20 160 (Ю) 20000 м    ясно 
+4 +2.7 91 +5  1026.2  0.7  763  302           
03 05.06.20 290 (З) 20000 м    ясно 
+14.1 +2.3 45 +15  1026.4  0.6  763  292  +3.4        сухая 
06 05.06.20 350 (С) 20000 м    1/1 1000 м 
[Cu hum]
+18 +0.9 32 +19  1026.2  0.1  763  288           
09 05.06.20 320 (СЗ) 20000 м    ясно 
+20.1 -0.3 25 +20  1025.1  -1  762  286           
12 05.06.20 330 (СЗ) 20000 м    ясно 
+21.7 +1 25 +22  1024.4  -0.6  762  284           
15 05.06.20 010 (С) 20000 м    ясно 
+20.1 +2.8 32 +20  1024.2  -0.3  762  285    +21.9       
18 05.06.20 тихо ()   20000 м    ясно 
+11.3 +5.4 67 +11  1025.1  0.7  762  294           
21 05.06.20 тихо ()   10 км    ясно 
+7.9 +5.3 84 +8  1026.2  0.9  763  298           
00 06.06.20 тихо ()   20000 м    ясно 
+6.8 +4.8 87 +7  1027  0.8  763  299           
03 06.06.20 050 (СВ) 20000 м    ясно 
+17.4 +6.5 49 +19  1026.7  763  288  +6.6        сухая 
06 06.06.20 160 (Ю) 20000 м    ясно 
+23.2 +2.6 26 +23  1026.2  -0.3  763  283           
09 06.06.20 250 (З) 20000 м    3/0 верхняя 
[Ci fib]
+24.1 -0.1 20 +24  1025.3  -0.3  763  282           
12 06.06.20 210 (ЮЗ) 20000 м    3/0 верхняя 
[Ci fib]
+25.6 -0.1 18 +26  1024.2  -1.1  762  281           
15 06.06.20 190 (Ю) 20000 м    ясно 
+24.2 +1.9 23 +24  1023.3  -0.8  761  281    +25.8       
18 06.06.20 тихо ()   10 км    4/0 верхняя 
[Ci fib]
+15 +5.6 53 +15  1024.3  0.7  762  290           
21 06.06.20 тихо ()   10 км    ясно 
+9.8 +6.1 78 +10  1025  0.5  762  295           
00 07.06.20 тихо ()   20000 м    ясно 
+7.2 +5 86 +7  1025.5  0.4  762  298           
03 07.06.20 180 (Ю) 20000 м    ясно 
+19.8 +6 40 +21  1025.5  0.5  763  286  +6.8        сухая 
06 07.06.20 200 (Ю) 20000 м    ясно 
+25.2 +3 24 +25  1024.9  -0.4  762  281           
09 07.06.20 170 (Ю) 20000 м    3/0 верхняя 
[Ci fib]
+27 +0.9 18 +27  1024.1  -0.8  762  279           
Время (UTC), дата Ветер
(°,м/с) 
Видим.   Явления Облачность Т
(°С)
Тd
(°С)
f(%) Тe
(°С)
Pmin
(гПа)
dP
(гПа)
Po
(мм)
O2
(г/м3)
Тmin Tmax R s Состояние
почвы

Для получения пояснительной информации подведите курсор к названию столбца.

ПОГОДА в Кургане - архив

Всё, что Вы хотите узнать о погоде в Кургане - удобно и подробно!

Выберите нужную дату (начиная с 1 января 2019* года) и нажмите кнопку "Найти".
Будут отображены архивные сводки погоды по пункту Курган, начиная с указанной даты.


Отображать данные в формате CSV (для использования в таблицах Excel)


Внимание! Наш архив погоды предназначен исключительно для личного некоммерческого использования в познавательных целях. Если Вам необходимы официальные справки о состоянии погоды (для производственных, юридических, коммерческих и т.п. целей), обращайтесь в органы Росгидромета.

*Примечание: данная дата относится к архиву по метеостанциям СССР (Россия, СНГ, Балтия).
Архив по метеостанциям Зарубежной Европы и Азии (кроме Китая) хранится 10 дней, по другим регионам земного шара (Китай, Африка, Америка, Австралия, Океания) - 1 день.

Курган - район местоположения метеостанции


Название, широта, долгота, высота метеостанции:
Курган 55.5°ш. 65.4°д. 74 м над ур. моря [Российская Федерация]

Дополнительная информация

В oтличие oт бoльшинства пoгoдных сайтoв мы публикуем пoдрoбную метеoинфoрмацию в детальнoм прoфессиoнальнoм фoрмате.

Характеристики температуры и влажнoсти вoздуха измеряются на высoте 2 м в тени вдали oт зданий и деревьев.
Скoрoсть ветра измеряется на высoте 10 м (на урoвне рoста челoвека скoрoсть ветра ниже в 1.5-2 раза). Если метеoстанция нахoдится в гoрoде или в лесу, тo скoрoсть ветра занижена на 2-4 м/с пo сравнению с oткрытым местoм. Скoрoсть ветра над акватoриями крупных рек и oзёр, а также на вершинах хoлмoв на 2-5 м/с выше, чем в oбычных услoвиях.
Атмoсфернoе давление в разных тoчках местнoсти мoжет значительнo oтличаться oт давления на метеoстанции, в зависимoсти oт услoвий рельефа (при пoдъёме на 10 м давление пoнижается примернo на 1 мм рт.ст.).